Stanley, ID

2:23 PM MST on December 18, 2017 (GMT -0700)
Stanley

Weather History for KSNT - October, 2013

Change the Weather History Date:

Monday, October 14, 2013

  Actual Average Record
Temperature  
Mean Temperature 33 °F 40 °F  
Max Temperature 48 °F 55 °F 73 °F (2015)
Min Temperature 17 °F 24 °F 7 °F (2017)
Degree Days  
Heating Degree Days 32 25  
Month to date heating degree days 389 326  
Since 1 July heating degree days 1140 1367  
Cooling Degree Days 0 0  
Month to date cooling degree days 0 0  
Year to date cooling degree days 19 3  
Moisture  
Dew Point 20 °F    
Average Humidity 63    
Maximum Humidity 96    
Minimum Humidity 29    
Precipitation  
Precipitation 0.00 in 0.04 in 0.72 in (2009)
Month to date precipitation 0.03 0.40  
Year to date precipitation 10.53 12.61  
Sea Level Pressure  
Sea Level Pressure 30.19 in    
Wind  
Wind Speed 3 mph (NNW)    
Max Wind Speed 12 mph    
Max Gust Speed 16 mph    
T = Trace of Precipitation, MM = Missing Value Source: NWS Daily Summary

Daily Weather History Graph

Daily Weather History Graph

Search for Another Location

Airport or City:

Trip Planner

Search our weather history database for the weather conditions in past years. The results will help you decide how hot, cold, wet, or windy it might be!

Date:

Astronomy

Oct. 14, 2013 Rise Set
Actual Time 7:53 AM MDT 6:56 PM MDT
Civil Twilight 7:24 AM MDT 7:25 PM MDT
Nautical Twilight 6:50 AM MDT 7:59 PM MDT
Astronomical Twilight 6:17 AM MDT 8:32 PM MDT
Moon 4:36 PM MDT (10/14) 3:05 AM MDT (10/14)
Length of Visible Light 12h 01m
Length of Day
11h 03m
Waxing Gibbous, 80% of the Moon is Illuminated
Oct 14
Waxing Gibbous
Oct 18
Full
Oct 26
Last Quarter
Nov 3
New
Nov 9
First Quarter

Hourly Weather History & Observations

Time (MDT) Temp. Windchill Dew Point Humidity Pressure Visibility Wind Dir Wind Speed Gust Speed Precip Events Conditions
12:51 AM 23.0 °F - 21.0 °F 92% 30.12 in - Calm Calm - N/A   Unknown
1:51 AM 24.1 °F - 21.0 °F 88% 30.12 in - Calm Calm - N/A   Unknown
2:51 AM 21.9 °F - 19.9 °F 92% 30.14 in - Calm Calm - N/A   Unknown
3:51 AM 21.0 °F - 19.0 °F 92% 30.14 in - Calm Calm - N/A   Unknown
4:51 AM 21.0 °F - 19.0 °F 92% 30.14 in - Calm Calm - N/A   Unknown
5:51 AM 19.0 °F - 17.1 °F 92% 30.17 in - Calm Calm - N/A   Unknown
6:51 AM 18.0 °F - 16.0 °F 92% 30.19 in - Calm Calm - N/A   Unknown
7:51 AM 19.0 °F - 17.1 °F 92% 30.21 in - Calm Calm - N/A   Unknown
8:51 AM 23.0 °F - 21.0 °F 92% 30.23 in - Calm Calm - N/A   Unknown
9:51 AM 30.0 °F - 27.0 °F 88% 30.23 in - Calm Calm - N/A   Unknown
10:51 AM 35.1 °F 31.0 °F 28.0 °F 76% 30.21 in - North 4.6 mph - N/A   Unknown
11:51 AM 42.1 °F 39.2 °F 25.0 °F 51% 30.19 in - Variable 4.6 mph - N/A   Unknown
12:51 PM 42.1 °F 37.7 °F 19.9 °F 41% 30.19 in - NNW 6.9 mph - N/A   Unknown
1:51 PM 48.0 °F - 18.0 °F 30% 30.15 in - NNW 9.2 mph - N/A   Unknown
2:51 PM 45.0 °F 40.6 °F 18.0 °F 34% 30.16 in - NNW 8.1 mph - N/A   Unknown
3:51 PM 45.0 °F 41.8 °F 19.0 °F 36% 30.17 in - Variable 5.8 mph - N/A   Unknown
4:51 PM 46.9 °F - 17.1 °F 30% 30.16 in - NW 8.1 mph - N/A   Unknown
5:51 PM 44.1 °F 40.1 °F 17.1 °F 34% 30.19 in - NW 6.9 mph - N/A   Unknown
6:51 PM 42.1 °F - 16.0 °F 35% 30.22 in - Calm Calm - N/A   Unknown
7:51 PM 39.9 °F 35.8 °F 19.0 °F 43% 30.23 in - Variable 5.8 mph - N/A   Unknown
8:51 PM 37.9 °F - 19.9 °F 48% 30.24 in - Calm Calm - N/A   Unknown
9:51 PM 37.0 °F 34.5 °F 21.0 °F 52% 30.23 in - NNW 3.5 mph - N/A   Unknown
10:51 PM 32.0 °F 28.7 °F 19.9 °F 61% 30.26 in - West 3.5 mph - N/A   Unknown
11:51 PM 28.9 °F - 19.9 °F 69% 30.25 in - Calm Calm - N/A   Unknown